Location: East San Gabriel
(34.0917°N, 118.0912°W)
Time: 19:53:39
(UTC+00:00)

Daily predictions for brighter satellites

Satellite Brightness Start Highest point End
(mag) Time Altitude Azimuth Time Altitude Azimuth Time Altitude Azimuth
Cosmos 1624 Rocket 4.4 12:20:01 10° S 12:25:13 62° ESE 12:30:30 10° NNE
Cosmos 1812 4.2 12:26:40 36° ESE 12:26:40 36° ESE 12:29:38 10° SSE
Cosmos 2056 Rocket 3.7 12:25:15 10° S 12:30:18 66° ESE 12:35:22 10° NNE
Lacrosse 5 2.0 12:30:27 64° NE 12:30:39 65° NE 12:35:40 10° SE
USA 234 4.3 12:26:25 10° NNE 12:30:44 29° NNW 12:30:44 29° NNW
Cosmos 1933 Rocket 4.5 12:29:09 10° SSE 12:33:17 47° E 12:37:26 10° NNE
Cosmos 2263 Rocket 4.0 12:30:50 10° SSE 12:35:40 31° ESE 12:40:31 10° NE
STARLINK-32 4.4 12:38:03 45° NE 12:38:03 45° NE 12:41:37 10° ESE
Aureole 1 Rocket 3.8 12:36:37 48° NNW 12:38:25 88° WSW 12:45:37 10° SSE
STARLINK-41 4.4 12:38:41 46° NE 12:38:41 46° NE 12:42:26 10° ESE
STARLINK-40 4.3 12:39:37 47° NE 12:39:37 47° NE 12:43:17 10° ESE
STARLINK-37 4.2 12:39:50 50° NE 12:39:50 50° NE 12:43:36 10° ESE
STARLINK-64 4.3 12:40:10 48° NE 12:40:10 48° NE 12:44:02 10° ESE
STARLINK-44 4.2 12:41:13 49° NE 12:41:13 49° NE 12:44:57 10° ESE
Cosmos 1891 Rocket 4.4 12:35:02 10° SSW 12:41:26 66° W 12:47:46 10° N
Centaur D AC-28 4.0 12:39:55 30° SW 12:43:14 43° S 13:16:49 10° SE
STARLINK-36 4.1 12:44:24 53° NE 12:44:24 53° NE 12:48:18 10° ESE
CZ-4C R/B 3.7 12:40:06 18° NNW 12:45:52 53° NE 12:53:58 10° SE
ALOS 3.6 12:42:00 10° NNE 12:46:24 40° E 12:50:45 10° SSE
Cosmos 1464 Rocket 3.9 12:40:38 10° SSW 12:46:45 59° W 12:52:49 10° N
STARLINK-35 3.8 12:49:11 59° NNE 12:49:21 59° NE 12:53:18 10° ESE
STARLINK 4.0 12:49:31 52° NNE 12:49:53 54° NE 12:53:53 10° ESE
STARLINK-51 3.7 12:50:46 60° NNE 12:51:00 62° NE 12:54:58 10° SE
STARLINK-30 3.7 12:52:23 62° NNE 12:52:41 64° NE 12:56:40 10° SE
H-2A R/B 2.2 12:53:31 34° S 12:53:55 35° S 13:00:10 10° ESE
STARLINK-33 3.6 12:53:58 63° N 12:54:20 67° NE 12:58:19 10° SE
STARLINK-50 3.6 12:55:34 63° N 12:55:59 70° NE 12:59:59 10° SE
COSMO-SKYMED 1 3.4 12:52:31 10° SSE 12:56:42 50° ENE 13:00:54 10° N
Gbstr 26 Del rocket 4.3 12:59:13 22° SSW 12:59:13 22° SSW 13:01:11 10° S
STARLINK-56 3.5 12:58:45 62° NNW 12:59:18 75° NE 13:03:18 10° SE
Starlink (trailer) 3.5 13:00:19 61° NNW 13:00:56 79° NE 13:04:56 10° SE
STARLINK-38 3.5 13:01:56 60° NNW 13:02:36 82° NE 13:06:37 10° SE
COBE Rocket 3.9 12:59:04 10° S 13:03:53 53° W 13:05:22 38° NW
STARLINK-65 3.4 13:03:31 58° NW 13:04:15 85° NE 13:08:16 10° SE
CZ-4B R/B 4.3 12:59:12 10° NNE 13:04:35 47° E 13:09:59 10° S
SL-23 DEB 3.6 13:03:59 36° SSW 13:05:10 67° SE 13:08:16 10° NE
Cosmos 1470 Rocket 4.1 13:00:55 10° SSW 13:09:00 13° N 13:09:33 10° N
Okean O Rocket 2.8 13:01:16 10° NNE 13:05:28 44° E 13:09:40 10° S
Helios 1A Rocket 4.2 13:04:29 10° NNE 13:08:18 42° E 13:12:07 10° S
STARLINK-69 3.4 13:08:21 52° NW 13:09:16 83° SW 13:13:16 10° SE
PAYLOAD B 4.4 13:05:01 10° NNE 13:10:33 74° ESE 13:16:04 10° S
Cosmos 2242 Rocket 3.6 13:06:01 10° N 13:10:35 85° E 13:15:04 10° S
FENGYUN 3A 3.9 13:05:23 10° NNE 13:10:46 72° ESE 13:16:07 10° S
STARLINK-66 3.4 13:09:54 50° NW 13:10:53 82° SW 13:14:54 10° SE
BREEZE-M DEB (TANK) 2.5 13:13:39 49° SW 13:13:44 49° SW 13:16:47 10° SE
Cosmos 1862 Rocket 3.7 13:12:44 33° NW 13:14:20 49° W 13:18:38 10° SSW
STARLINK-70 3.4 13:14:38 44° WNW 13:15:48 73° SW 13:19:48 10° SE
Cosmos 1703 Rocket 4.3 13:12:31 10° N 13:16:52 53° E 13:21:10 10° SSE
Cosmos 1452 Rocket 4.0 13:11:53 10° S 13:17:03 63° ESE 13:22:16 10° NNE
STARLINK-68 3.5 13:16:23 42° WNW 13:17:33 65° SW 13:21:31 10° SE
STARLINK-58 3.5 13:17:53 40° WNW 13:19:09 66° SW 13:23:07 10° SE
SKYMED 3 4.4 13:16:29 10° S 13:20:48 81° WSW 13:25:09 10° NNW
STARLINK-62 3.6 13:19:34 38° WNW 13:20:51 60° SW 13:24:48 10° SSE
STARLINK-63 3.6 13:21:02 36° WNW 13:22:27 61° SW 13:26:24 10° SSE
GEOS 3 Rocket 3.6 13:18:46 10° SSE 13:23:46 60° WSW 13:27:10 21° NW
STARLINK-72 3.6 13:24:04 33° WNW 13:25:38 59° SW 13:29:34 10° SSE
NOAA 6 4.2 13:20:48 10° NNE 13:25:55 76° ESE 13:31:02 10° S
MOS 1-B 4.3 13:21:34 10° N 13:27:16 60° WNW 13:32:54 10° SSW
Nadezhda 4 Rocket 4.0 13:21:43 10° NNW 13:27:46 57° W 13:33:44 10° SSW
Cosmos 614 Rocket 4.0 13:24:02 16° NNW 13:27:57 58° WSW 13:32:56 10° S
Cosmos 1869 Rocket 3.7 13:23:59 10° S 13:28:16 72° E 13:32:35 10° N
STARLINK-59 3.8 13:27:23 30° WNW 13:29:00 51° SW 13:32:53 10° SSE
Cosmos 1602 4.3 13:25:52 10° S 13:29:37 60° E 13:33:23 10° NNE
Cosmos 407 Rocket 3.6 13:27:31 13° NNW 13:32:09 56° WSW 13:37:21 10° S
STARLINK-55 3.9 13:30:33 28° WNW 13:32:18 48° SW 13:36:10 10° SSE
SL-16 R/B 2.8 13:29:37 20° NW 13:32:49 37° WSW 13:37:58 10° S
Cosmos 1340 3.7 13:30:16 10° S 13:33:52 47° E 13:37:29 10° NNE
STARLINK-28 4.0 13:32:12 27° WNW 13:33:59 45° SW 13:37:49 10° SSE
STARLINK-53 4.1 13:35:21 24° WNW 13:37:16 42° SW 13:41:03 10° SSE
Cosmos 1140 Rocket 3.4 13:32:43 10° NNW 13:37:55 75° WSW 13:43:06 10° S
STARLINK-54 4.2 13:36:59 23° WNW 13:38:56 39° SW 13:42:41 10° SSE
Cosmos 1603 4.2 13:33:32 10° NNW 13:39:15 63° ENE 13:44:52 10° SSE
Cosmos 1484 Rocket 3.9 13:37:20 10° NNW 13:40:26 23° WNW 13:43:30 10° WSW
DELTA 2 R/B(2) 3.5 13:40:52 36° N 13:41:04 38° NNE 13:42:55 10° E
METEOR-M 4.2 13:35:52 10° N 13:41:05 55° WNW 13:46:17 10° SSW
STARLINK-34 4.3 13:40:08 21° WNW 13:42:11 36° SW 13:45:54 10° SSE
SKYMED 2 4.0 13:40:45 10° S 13:44:49 40° W 13:48:55 10° NNW
STARLINK-81 4.2 13:43:02 20° WNW 13:45:20 38° SW 13:49:03 10° SSE
SJ-7 4.3 13:42:53 10° N 13:46:55 87° W 13:50:53 10° SSW
STARLINK-24 4.4 13:44:54 19° WNW 13:47:09 33° SW 13:50:45 10° SSE
STARLINK-77 4.4 13:46:14 18° WNW 13:48:38 35° SW 13:52:17 10° SSE
STARLINK-25 4.4 13:47:49 17° WNW 13:50:17 33° SW 13:53:54 10° SSE
Cosmos 2026 Rocket 4.0 13:44:08 10° N 13:50:20 88° W 13:56:36 10° S
PSLV R/B 4.3 13:50:00 16° NNW 13:50:39 18° N 13:52:26 10° NE
Cosmos 2279 Rocket 4.1 13:47:28 10° S 13:53:39 84° E 13:59:52 10° N
SL-24 R/B 4.4 13:53:28 10° SSE 13:58:19 76° ENE 14:02:37 10° N
Cosmos 1634 Rocket 4.1 13:52:18 10° SSW 13:58:20 51° W 14:04:22 10° N
Cosmos 371 Rocket 4.4 13:58:24 10° S 14:03:02 50° ESE 14:07:44 10° NNE
Meteor 1-18 Rocket 4.2 13:59:46 10° NNW 14:05:19 76° W 14:10:52 10° S
Cosmos 1346 Rocket 2.7 14:02:31 10° SSW 14:06:20 63° W 14:10:11 10° N
Lacrosse 5 3.6 14:10:12 10° W 14:13:05 15° WSW 14:15:58 10° SSW
SMAP 3.1 14:11:42 10° N 14:16:23 85° W 14:21:02 10° SSW
Okean 1-7 3.8 14:14:49 10° NNW 14:18:43 31° W 14:22:35 10° SSW
Cosmos 44 3.2 14:14:32 10° SSW 14:19:25 85° WNW 14:24:05 10° NNE
Cosmos 2263 Rocket 2.9 14:14:39 10° WSW 14:19:30 30° WNW 14:24:21 10° N
Meteor 1-11 Rocket 4.5 14:15:23 10° S 14:20:56 60° E 14:26:38 10° NNE
ADEOS Rocket 3.8 14:13:51 10° SSE 14:21:08 70° ENE 14:27:45 10° N
Cosmos 1110 Rocket 4.1 14:17:05 10° SSW 14:22:17 86° ESE 14:27:29 10° NNE
